Time,TemperatureF,DewpointF,PressureIn,WindDirection,WindDirectionDegrees,WindSpeedMPH,WindSpeedGustMPH,Humidity,HourlyPrecipIn,Conditions,Clouds,dailyrainin,SoftwareType,DateUTC
2013-03-08 00:02:00,36.5,33.8,30.00,NW,321,1.0,1.0,90,0.00,,,0.00,Wunderground v.1.15,2013-03-08 08:02:00,
2013-03-08 00:08:00,35.9,33.3,30.00,NW,321,1.0,2.0,90,0.00,,,0.00,Wunderground v.1.15,2013-03-08 08:08:00,
2013-03-08 00:14:00,35.5,32.9,30.00,NW,321,1.0,1.0,90,0.00,,,0.00,Wunderground v.1.15,2013-03-08 08:14:00,
2013-03-08 00:20:00,35.5,32.9,30.00,NW,321,1.0,1.0,90,0.00,,,0.00,Wunderground v.1.15,2013-03-08 08:20:00,
2013-03-08 00:26:00,35.3,32.9,30.00,NW,321,1.0,1.0,91,0.00,,,0.00,Wunderground v.1.15,2013-03-08 08:26:00,
2013-03-08 00:32:00,35.3,32.9,30.00,NW,321,0.0,0.0,91,0.00,,,0.00,Wunderground v.1.15,2013-03-08 08:32:00,
2013-03-08 00:38:00,35.5,33.1,30.00,NW,321,0.0,0.0,91,0.00,,,0.00,Wunderground v.1.15,2013-03-08 08:38:00,
2013-03-08 00:44:00,35.5,33.1,30.00,NW,321,0.0,0.0,91,0.00,,,0.00,Wunderground v.1.15,2013-03-08 08:44:00,
2013-03-08 00:50:00,36.0,33.9,30.00,NW,321,0.0,0.0,92,0.00,,,0.00,Wunderground v.1.15,2013-03-08 08:50:00,
2013-03-08 00:56:00,36.3,34.2,30.00,NW,321,0.0,0.0,92,0.00,,,0.00,Wunderground v.1.15,2013-03-08 08:56:00,
2013-03-08 01:02:00,36.6,34.5,30.00,NW,321,0.0,0.0,92,0.00,,,0.00,Wunderground v.1.15,2013-03-08 09:02:00,
2013-03-08 01:08:00,36.7,34.6,30.00,NW,321,0.0,0.0,92,0.00,,,0.00,Wunderground v.1.15,2013-03-08 09:08:00,
2013-03-08 01:14:00,36.5,34.4,30.00,NW,321,0.0,1.0,92,0.00,,,0.00,Wunderground v.1.15,2013-03-08 09:14:00,
2013-03-08 01:20:00,35.7,33.3,30.00,NW,321,0.0,0.0,91,0.00,,,0.00,Wunderground v.1.15,2013-03-08 09:20:00,
2013-03-08 01:26:00,35.0,32.6,30.00,NW,321,0.0,1.0,91,0.00,,,0.00,Wunderground v.1.15,2013-03-08 09:26:00,
2013-03-08 01:32:00,34.8,32.4,30.00,NW,321,0.0,0.0,91,0.00,,,0.00,Wunderground v.1.15,2013-03-08 09:32:00,
2013-03-08 01:38:00,34.4,32.0,30.00,NW,321,0.0,1.0,91,0.00,,,0.00,Wunderground v.1.15,2013-03-08 09:38:00,
2013-03-08 01:44:00,34.6,32.5,30.00,NW,321,0.0,0.0,92,0.00,,,0.00,Wunderground v.1.15,2013-03-08 09:44:00,
2013-03-08 01:50:00,35.5,33.4,30.00,NW,321,0.0,0.0,92,0.00,,,0.00,Wunderground v.1.15,2013-03-08 09:50:00,
2013-03-08 01:56:00,35.5,33.4,30.00,NW,321,0.0,1.0,92,0.00,,,0.00,Wunderground v.1.15,2013-03-08 09:56:00,
2013-03-08 02:02:00,35.5,33.4,30.00,NW,321,0.0,0.0,92,0.00,,,0.00,Wunderground v.1.15,2013-03-08 10:02:00,
2013-03-08 02:08:00,35.7,33.6,30.00,NW,321,0.0,0.0,92,0.00,,,0.00,Wunderground v.1.15,2013-03-08 10:08:00,
2013-03-08 02:14:00,36.1,34.0,30.00,NW,321,0.0,0.0,92,0.00,,,0.00,Wunderground v.1.15,2013-03-08 10:14:00,
2013-03-08 02:20:00,36.1,34.0,30.00,NW,321,0.0,0.0,92,0.00,,,0.00,Wunderground v.1.15,2013-03-08 10:20:00,
2013-03-08 02:26:00,36.1,34.0,30.00,NW,321,0.0,0.0,92,0.00,,,0.00,Wunderground v.1.15,2013-03-08 10:26:00,
2013-03-08 02:32:00,36.1,34.0,30.00,NW,321,0.0,0.0,92,0.00,,,0.00,Wunderground v.1.15,2013-03-08 10:32:00,
2013-03-08 02:38:00,36.0,33.9,30.00,NW,321,0.0,0.0,92,0.00,,,0.00,Wunderground v.1.15,2013-03-08 10:38:00,
2013-03-08 02:44:00,35.8,33.7,30.00,NW,321,0.0,0.0,92,0.00,,,0.00,Wunderground v.1.15,2013-03-08 10:44:00,
2013-03-08 02:50:00,35.7,33.6,30.00,NW,321,0.0,0.0,92,0.00,,,0.00,Wunderground v.1.15,2013-03-08 10:50:00,
2013-03-08 02:56:00,35.5,33.4,30.00,NW,321,0.0,0.0,92,0.00,,,0.00,Wunderground v.1.15,2013-03-08 10:56:00,
2013-03-08 03:02:00,35.3,33.2,30.00,NW,321,0.0,0.0,92,0.00,,,0.00,Wunderground v.1.15,2013-03-08 11:02:00,
2013-03-08 03:08:00,35.0,32.9,30.00,NW,321,0.0,0.0,92,0.00,,,0.00,Wunderground v.1.15,2013-03-08 11:08:00,
2013-03-08 03:14:00,35.1,33.0,30.00,NW,321,0.0,0.0,92,0.00,,,0.00,Wunderground v.1.15,2013-03-08 11:14:00,
2013-03-08 03:20:00,35.1,33.0,30.00,NW,321,0.0,0.0,92,0.00,,,0.00,Wunderground v.1.15,2013-03-08 11:20:00,
2013-03-08 03:26:00,35.3,33.5,30.00,NW,321,0.0,0.0,93,0.00,,,0.00,Wunderground v.1.15,2013-03-08 11:26:00,
2013-03-08 03:32:00,35.3,33.5,30.00,NW,321,0.0,0.0,93,0.00,,,0.00,Wunderground v.1.15,2013-03-08 11:32:00,
2013-03-08 03:38:00,35.5,33.7,30.00,NW,321,0.0,0.0,93,0.00,,,0.00,Wunderground v.1.15,2013-03-08 11:38:00,
2013-03-08 03:44:00,35.1,33.0,30.00,NW,321,0.0,0.0,92,0.00,,,0.00,Wunderground v.1.15,2013-03-08 11:44:00,
2013-03-08 03:50:00,35.3,33.5,30.00,NW,321,0.0,0.0,93,0.00,,,0.00,Wunderground v.1.15,2013-03-08 11:50:00,
2013-03-08 03:56:00,35.3,33.5,30.00,NW,321,0.0,0.0,93,0.00,,,0.00,Wunderground v.1.15,2013-03-08 11:56:00,
2013-03-08 04:02:00,35.2,33.4,30.00,NW,321,0.0,0.0,93,0.00,,,0.00,Wunderground v.1.15,2013-03-08 12:02:00,
2013-03-08 04:08:00,35.4,33.6,30.00,NW,321,0.0,0.0,93,0.00,,,0.00,Wunderground v.1.15,2013-03-08 12:08:00,
2013-03-08 04:14:00,35.2,33.4,30.00,NW,321,0.0,0.0,93,0.00,,,0.00,Wunderground v.1.15,2013-03-08 12:14:00,
2013-03-08 04:20:00,35.1,33.3,30.00,NW,321,0.0,0.0,93,0.00,,,0.00,Wunderground v.1.15,2013-03-08 12:20:00,
2013-03-08 04:26:00,35.2,33.4,30.00,NW,321,0.0,0.0,93,0.00,,,0.00,Wunderground v.1.15,2013-03-08 12:26:00,
2013-03-08 04:32:00,35.3,33.5,30.00,NW,321,0.0,0.0,93,0.00,,,0.00,Wunderground v.1.15,2013-03-08 12:32:00,
2013-03-08 04:38:00,34.9,33.1,30.00,NW,321,0.0,0.0,93,0.00,,,0.00,Wunderground v.1.15,2013-03-08 12:38:00,
2013-03-08 04:44:00,34.5,32.7,30.00,NW,321,0.0,0.0,93,0.00,,,0.00,Wunderground v.1.15,2013-03-08 12:44:00,
2013-03-08 04:50:00,33.9,32.1,30.00,NW,321,0.0,0.0,93,0.00,,,0.00,Wunderground v.1.15,2013-03-08 12:50:00,
2013-03-08 04:56:00,33.5,31.7,30.00,NW,321,0.0,0.0,93,0.00,,,0.00,Wunderground v.1.15,2013-03-08 12:56:00,
2013-03-08 05:02:00,33.9,32.1,30.00,NW,321,0.0,0.0,93,0.00,,,0.00,Wunderground v.1.15,2013-03-08 13:02:00,
2013-03-08 05:08:00,33.9,32.1,30.00,NW,321,0.0,0.0,93,0.00,,,0.00,Wunderground v.1.15,2013-03-08 13:08:00,
2013-03-08 05:14:00,34.4,32.6,30.00,NW,321,0.0,0.0,93,0.00,,,0.00,Wunderground v.1.15,2013-03-08 13:14:00,
2013-03-08 05:20:00,34.2,32.4,30.01,NW,321,0.0,0.0,93,0.00,,,0.00,Wunderground v.1.15,2013-03-08 13:20:00,
2013-03-08 05:26:00,34.2,32.4,30.01,NW,321,0.0,0.0,93,0.00,,,0.00,Wunderground v.1.15,2013-03-08 13:26:00,
2013-03-08 05:32:00,34.2,32.4,30.01,NW,321,0.0,0.0,93,0.00,,,0.00,Wunderground v.1.15,2013-03-08 13:32:00,
2013-03-08 05:38:00,34.0,32.2,30.01,NW,321,0.0,0.0,93,0.00,,,0.00,Wunderground v.1.15,2013-03-08 13:38:00,
2013-03-08 05:44:00,33.8,32.0,30.01,NW,321,0.0,0.0,93,0.00,,,0.00,Wunderground v.1.15,2013-03-08 13:44:00,
2013-03-08 05:50:00,33.4,31.6,30.01,NW,321,0.0,0.0,93,0.00,,,0.00,Wunderground v.1.15,2013-03-08 13:50:00,
2013-03-08 05:56:00,33.2,31.4,30.01,NW,321,0.0,0.0,93,0.00,,,0.00,Wunderground v.1.15,2013-03-08 13:56:00,
2013-03-08 06:02:00,33.0,31.2,30.01,NW,321,0.0,0.0,93,0.00,,,0.00,Wunderground v.1.15,2013-03-08 14:02:00,
2013-03-08 06:08:00,33.0,31.2,30.01,NW,321,0.0,0.0,93,0.00,,,0.00,Wunderground v.1.15,2013-03-08 14:08:00,
2013-03-08 06:14:00,33.0,31.2,30.01,NW,321,0.0,0.0,93,0.00,,,0.00,Wunderground v.1.15,2013-03-08 14:14:00,
2013-03-08 06:20:00,33.2,31.4,30.01,NW,309,2.0,2.0,93,0.00,,,0.00,Wunderground v.1.15,2013-03-08 14:20:00,
2013-03-08 06:26:00,33.2,31.4,30.01,NW,309,2.0,2.0,93,0.00,,,0.00,Wunderground v.1.15,2013-03-08 14:26:00,
2013-03-08 06:32:00,33.4,31.6,30.01,NW,309,1.0,1.0,93,0.00,,,0.00,Wunderground v.1.15,2013-03-08 14:32:00,
2013-03-08 06:38:00,34.4,32.9,30.01,NW,314,1.0,3.0,94,0.00,,,0.00,Wunderground v.1.15,2013-03-08 14:38:00,
2013-03-08 06:44:00,34.5,32.7,30.01,NW,315,2.0,3.0,93,0.00,,,0.00,Wunderground v.1.15,2013-03-08 14:44:00,
2013-03-08 06:50:00,34.7,32.9,30.02,NNW,327,2.0,2.0,93,0.00,,,0.00,Wunderground v.1.15,2013-03-08 14:50:00,
2013-03-08 06:56:00,34.5,32.7,30.02,NNW,329,1.0,2.0,93,0.00,,,0.00,Wunderground v.1.15,2013-03-08 14:56:00,
2013-03-08 07:02:00,35.0,33.4,30.02,NNW,332,1.0,1.0,94,0.00,,,0.00,Wunderground v.1.15,2013-03-08 15:02:00,
2013-03-08 07:08:00,35.3,33.5,30.02,NNW,332,1.0,1.0,93,0.00,,,0.00,Wunderground v.1.15,2013-03-08 15:08:00,
2013-03-08 07:14:00,36.0,34.4,30.02,NW,304,1.0,3.0,94,0.00,,,0.00,Wunderground v.1.15,2013-03-08 15:14:00,
2013-03-08 07:20:00,36.1,34.5,30.02,NNW,336,1.0,1.0,94,0.00,,,0.00,Wunderground v.1.15,2013-03-08 15:20:00,
2013-03-08 07:26:00,36.4,34.8,30.02,NNW,336,0.0,1.0,94,0.00,,,0.00,Wunderground v.1.15,2013-03-08 15:26:00,
2013-03-08 07:32:00,36.5,34.7,30.02,NNW,336,0.0,1.0,93,0.00,,,0.00,Wunderground v.1.15,2013-03-08 15:32:00,
2013-03-08 07:38:00,36.9,35.3,30.02,NNW,336,0.0,1.0,94,0.00,,,0.00,Wunderground v.1.15,2013-03-08 15:38:00,
2013-03-08 07:44:00,37.4,35.8,30.02,NNW,337,1.0,3.0,94,0.00,,,0.00,Wunderground v.1.15,2013-03-08 15:44:00,
2013-03-08 07:50:00,37.6,35.8,30.02,NNW,332,1.0,1.0,93,0.00,,,0.00,Wunderground v.1.15,2013-03-08 15:50:00,
2013-03-08 07:56:00,37.8,36.0,30.02,NNW,329,1.0,4.0,93,0.00,,,0.00,Wunderground v.1.15,2013-03-08 15:56:00,
2013-03-08 08:02:00,38.4,36.6,30.02,NNE,18,2.0,2.0,93,0.00,,,0.00,Wunderground v.1.15,2013-03-08 16:02:00,
2013-03-08 08:08:00,38.4,36.3,30.02,NW,317,3.0,6.0,92,0.00,,,0.00,Wunderground v.1.15,2013-03-08 16:08:00,
2013-03-08 08:14:00,38.7,36.6,30.02,NNW,327,3.0,3.0,92,0.00,,,0.00,Wunderground v.1.15,2013-03-08 16:14:00,
2013-03-08 08:20:00,39.1,36.7,30.02,NNE,22,2.0,3.0,91,0.00,,,0.00,Wunderground v.1.15,2013-03-08 16:20:00,
2013-03-08 08:26:00,39.4,36.7,30.02,NW,309,1.0,6.0,90,0.00,,,0.00,Wunderground v.1.15,2013-03-08 16:26:00,
2013-03-08 08:32:00,39.7,36.7,30.02,NW,317,3.0,9.0,89,0.00,,,0.00,Wunderground v.1.15,2013-03-08 16:32:00,
2013-03-08 08:38:00,40.1,36.8,30.02,WNW,286,3.0,9.0,88,0.00,,,0.00,Wunderground v.1.15,2013-03-08 16:38:00,
2013-03-08 08:44:00,40.8,37.2,30.03,North,360,3.0,4.0,87,0.00,,,0.00,Wunderground v.1.15,2013-03-08 16:44:00,
2013-03-08 08:50:00,41.0,37.1,30.02,WNW,296,2.0,2.0,86,0.00,,,0.00,Wunderground v.1.15,2013-03-08 16:50:00,
2013-03-08 08:56:00,41.1,36.9,30.03,NNW,329,3.0,4.0,85,0.00,,,0.00,Wunderground v.1.15,2013-03-08 16:56:00,
2013-03-08 09:02:00,41.2,36.7,30.02,NW,306,4.0,10.0,84,0.00,,,0.00,Wunderground v.1.15,2013-03-08 17:02:00,
2013-03-08 09:08:00,41.6,36.8,30.03,NW,318,4.0,10.0,83,0.00,,,0.00,Wunderground v.1.15,2013-03-08 17:08:00,
2013-03-08 09:14:00,41.7,36.9,30.03,WNW,288,5.0,6.0,83,0.00,,,0.00,Wunderground v.1.15,2013-03-08 17:14:00,
2013-03-08 09:20:00,42.6,37.5,30.03,NNE,19,4.0,4.0,82,0.00,,,0.00,Wunderground v.1.15,2013-03-08 17:20:00,
2013-03-08 09:26:00,43.4,37.6,30.02,NNW,342,3.0,4.0,80,0.00,,,0.00,Wunderground v.1.15,2013-03-08 17:26:00,
2013-03-08 09:32:00,43.9,37.5,30.03,WNW,295,2.0,4.0,78,0.00,,,0.00,Wunderground v.1.15,2013-03-08 17:32:00,
2013-03-08 09:38:00,44.3,38.2,30.03,North,360,2.0,4.0,79,0.00,,,0.00,Wunderground v.1.15,2013-03-08 17:38:00,
2013-03-08 09:44:00,44.3,38.2,30.03,NW,325,2.0,6.0,79,0.00,,,0.00,Wunderground v.1.15,2013-03-08 17:44:00,
2013-03-08 09:50:00,44.6,37.5,30.03,NW,304,2.0,5.0,76,0.00,,,0.00,Wunderground v.1.15,2013-03-08 17:50:00,
2013-03-08 09:56:00,44.8,38.0,30.03,North,360,3.0,7.0,77,0.00,,,0.00,Wunderground v.1.15,2013-03-08 17:56:00,
2013-03-08 10:02:00,45.9,38.1,30.03,NW,312,2.0,6.0,74,0.00,,,0.00,Wunderground v.1.15,2013-03-08 18:02:00,
2013-03-08 10:08:00,45.1,38.0,30.03,WSW,246,3.0,6.0,76,0.00,,,0.00,Wunderground v.1.15,2013-03-08 18:08:00,
2013-03-08 10:14:00,45.4,37.6,30.04,WNW,302,4.0,4.0,74,0.00,,,0.00,Wunderground v.1.15,2013-03-08 18:14:00,
2013-03-08 10:20:00,45.3,38.2,30.04,WNW,300,3.0,3.0,76,0.00,,,0.00,Wunderground v.1.15,2013-03-08 18:20:00,
2013-03-08 10:26:00,46.0,38.9,30.03,NW,307,3.0,6.0,76,0.00,,,0.00,Wunderground v.1.15,2013-03-08 18:26:00,
2013-03-08 10:32:00,46.1,38.3,30.03,West,271,3.0,6.0,74,0.00,,,0.00,Wunderground v.1.15,2013-03-08 18:32:00,
2013-03-08 10:38:00,45.4,37.6,30.03,WSW,238,4.0,7.0,74,0.00,,,0.00,Wunderground v.1.15,2013-03-08 18:38:00,
2013-03-08 10:44:00,45.6,37.8,30.03,WSW,246,4.0,9.0,74,0.00,,,0.00,Wunderground v.1.15,2013-03-08 18:44:00,
2013-03-08 10:50:00,45.5,37.7,30.03,WSW,258,5.0,5.0,74,0.00,,,0.00,Wunderground v.1.15,2013-03-08 18:50:00,
2013-03-08 10:56:00,46.8,37.9,30.03,NNE,25,4.0,5.0,71,0.00,,,0.00,Wunderground v.1.15,2013-03-08 18:56:00,
2013-03-08 11:02:00,46.9,38.3,30.03,North,360,4.0,4.0,72,0.00,,,0.00,Wunderground v.1.15,2013-03-08 19:02:00,
2013-03-08 11:08:00,47.4,37.7,30.03,NW,309,4.0,12.0,69,0.00,,,0.00,Wunderground v.1.15,2013-03-08 19:08:00,
2013-03-08 11:14:00,47.9,38.6,30.03,NNE,26,5.0,5.0,70,0.00,,,0.00,Wunderground v.1.15,2013-03-08 19:14:00,
2013-03-08 11:20:00,48.6,38.9,30.03,NNW,337,4.0,4.0,69,0.00,,,0.00,Wunderground v.1.15,2013-03-08 19:20:00,
2013-03-08 11:26:00,48.0,37.9,30.03,NW,319,5.0,5.0,68,0.00,,,0.00,Wunderground v.1.15,2013-03-08 19:26:00,
2013-03-08 11:32:00,48.5,38.4,30.02,NNW,336,5.0,6.0,68,0.00,,,0.00,Wunderground v.1.15,2013-03-08 19:32:00,
2013-03-08 11:38:00,49.2,37.9,30.02,NNW,327,5.0,6.0,65,0.00,,,0.00,Wunderground v.1.15,2013-03-08 19:38:00,
2013-03-08 11:44:00,49.4,38.1,30.02,WNW,296,5.0,10.0,65,0.00,,,0.00,Wunderground v.1.15,2013-03-08 19:44:00,
2013-03-08 11:50:00,50.1,38.0,30.02,NW,308,5.0,10.0,63,0.00,,,0.00,Wunderground v.1.15,2013-03-08 19:50:00,
2013-03-08 11:56:00,50.1,38.0,30.02,WNW,298,5.0,10.0,63,0.00,,,0.00,Wunderground v.1.15,2013-03-08 19:56:00,
2013-03-08 12:02:00,50.6,38.1,30.02,NNE,13,4.0,5.0,62,0.00,,,0.00,Wunderground v.1.15,2013-03-08 20:02:00,
2013-03-08 12:08:00,51.2,37.8,30.02,NW,317,3.0,9.0,60,0.00,,,0.00,Wunderground v.1.15,2013-03-08 20:08:00,
2013-03-08 12:14:00,51.4,38.4,30.02,SW,232,5.0,8.0,61,0.00,,,0.00,Wunderground v.1.15,2013-03-08 20:14:00,
2013-03-08 12:20:00,52.1,38.2,30.01,NW,321,5.0,6.0,59,0.00,,,0.00,Wunderground v.1.15,2013-03-08 20:20:00,
2013-03-08 12:26:00,52.1,37.8,30.01,West,264,5.0,6.0,58,0.00,,,0.00,Wunderground v.1.15,2013-03-08 20:26:00,
2013-03-08 12:32:00,53.3,39.3,30.01,NNW,327,3.0,4.0,59,0.00,,,0.00,Wunderground v.1.15,2013-03-08 20:32:00,
2013-03-08 12:38:00,53.4,38.5,30.01,North,360,3.0,5.0,57,0.00,,,0.00,Wunderground v.1.15,2013-03-08 20:38:00,
2013-03-08 12:44:00,53.3,38.9,30.01,NE,38,4.0,7.0,58,0.00,,,0.00,Wunderground v.1.15,2013-03-08 20:44:00,
2013-03-08 12:50:00,54.1,40.1,30.01,North,355,3.0,4.0,59,0.00,,,0.00,Wunderground v.1.15,2013-03-08 20:50:00,
2013-03-08 12:56:00,54.6,38.7,30.01,North,360,3.0,10.0,55,0.00,,,0.00,Wunderground v.1.15,2013-03-08 20:56:00,
2013-03-08 13:02:00,54.3,38.5,30.01,NW,323,4.0,6.0,55,0.00,,,0.00,Wunderground v.1.15,2013-03-08 21:02:00,
2013-03-08 13:08:00,54.6,39.2,30.01,NW,311,4.0,6.0,56,0.00,,,0.00,Wunderground v.1.15,2013-03-08 21:08:00,
2013-03-08 13:14:00,55.1,38.7,30.00,NNE,21,3.0,5.0,54,0.00,,,0.00,Wunderground v.1.15,2013-03-08 21:14:00,
2013-03-08 13:20:00,55.0,37.7,30.00,NW,315,4.0,7.0,52,0.00,,,0.00,Wunderground v.1.15,2013-03-08 21:20:00,
2013-03-08 13:26:00,54.9,38.1,30.00,North,355,5.0,7.0,53,0.00,,,0.00,Wunderground v.1.15,2013-03-08 21:26:00,
2013-03-08 13:32:00,55.7,38.8,30.00,WNW,300,4.0,9.0,53,0.00,,,0.00,Wunderground v.1.15,2013-03-08 21:32:00,
2013-03-08 13:38:00,55.5,37.7,30.00,NW,309,5.0,9.0,51,0.00,,,0.00,Wunderground v.1.15,2013-03-08 21:38:00,
2013-03-08 13:44:00,55.6,37.7,30.00,NE,42,5.0,6.0,51,0.00,,,0.00,Wunderground v.1.15,2013-03-08 21:44:00,
2013-03-08 13:50:00,56.2,38.3,30.00,WNW,285,4.0,6.0,51,0.00,,,0.00,Wunderground v.1.15,2013-03-08 21:50:00,
2013-03-08 13:56:00,56.2,38.8,30.00,NE,34,4.0,7.0,52,0.00,,,0.00,Wunderground v.1.15,2013-03-08 21:56:00,
2013-03-08 14:02:00,56.7,38.3,29.99,NNW,331,4.0,4.0,50,0.00,,,0.00,Wunderground v.1.15,2013-03-08 22:02:00,
2013-03-08 14:08:00,56.9,37.9,29.99,North,5,3.0,6.0,49,0.00,,,0.00,Wunderground v.1.15,2013-03-08 22:08:00,
2013-03-08 14:14:00,57.3,38.8,29.99,West,277,2.0,3.0,50,0.00,,,0.00,Wunderground v.1.15,2013-03-08 22:14:00,
2013-03-08 14:20:00,58.0,37.9,29.99,West,265,2.0,9.0,47,0.00,,,0.00,Wunderground v.1.15,2013-03-08 22:20:00,
2013-03-08 14:26:00,57.3,36.1,29.99,West,281,4.0,9.0,45,0.00,,,0.00,Wunderground v.1.15,2013-03-08 22:26:00,
2013-03-08 14:32:00,57.2,36.0,29.99,NW,306,4.0,12.0,45,0.00,,,0.00,Wunderground v.1.15,2013-03-08 22:32:00,
2013-03-08 14:38:00,56.9,35.2,30.00,West,259,4.0,12.0,44,0.00,,,0.00,Wunderground v.1.15,2013-03-08 22:38:00,
2013-03-08 14:44:00,57.4,36.8,30.00,NW,323,4.0,9.0,46,0.00,,,0.00,Wunderground v.1.15,2013-03-08 22:44:00,
2013-03-08 14:50:00,57.2,36.0,30.00,NW,317,4.0,4.0,45,0.00,,,0.00,Wunderground v.1.15,2013-03-08 22:50:00,
2013-03-08 14:56:00,57.3,35.6,30.00,NNW,333,3.0,4.0,44,0.00,,,0.00,Wunderground v.1.15,2013-03-08 22:56:00,
2013-03-08 15:02:00,57.2,35.5,30.00,NNE,33,4.0,4.0,44,0.00,,,0.00,Wunderground v.1.15,2013-03-08 23:02:00,
2013-03-08 15:08:00,57.5,35.7,30.00,North,9,4.0,5.0,44,0.00,,,0.00,Wunderground v.1.15,2013-03-08 23:08:00,
2013-03-08 15:14:00,57.1,34.8,30.00,NW,315,3.0,5.0,43,0.00,,,0.00,Wunderground v.1.15,2013-03-08 23:14:00,
2013-03-08 15:20:00,57.2,35.5,30.01,NW,320,4.0,4.0,44,0.00,,,0.00,Wunderground v.1.15,2013-03-08 23:20:00,
2013-03-08 15:26:00,57.2,34.9,30.00,NW,311,3.0,4.0,43,0.00,,,0.00,Wunderground v.1.15,2013-03-08 23:26:00,
2013-03-08 15:32:00,57.5,36.3,30.00,NE,40,3.0,3.0,45,0.00,,,0.00,Wunderground v.1.15,2013-03-08 23:32:00,
2013-03-08 15:38:00,57.3,36.1,30.00,North,5,3.0,5.0,45,0.00,,,0.00,Wunderground v.1.15,2013-03-08 23:38:00,
2013-03-08 15:44:00,56.9,35.8,30.00,NNE,26,3.0,5.0,45,0.00,,,0.00,Wunderground v.1.15,2013-03-08 23:44:00,
2013-03-08 15:50:00,57.0,36.4,30.01,WNW,298,3.0,4.0,46,0.00,,,0.00,Wunderground v.1.15,2013-03-08 23:50:00,
2013-03-08 15:56:00,56.8,35.7,30.00,NNE,14,4.0,6.0,45,0.00,,,0.00,Wunderground v.1.15,2013-03-08 23:56:00,
2013-03-08 16:02:00,56.7,36.1,30.00,NW,320,3.0,3.0,46,0.00,,,0.00,Wunderground v.1.15,2013-03-09 00:02:00,
2013-03-08 16:08:00,56.7,36.1,30.00,NNE,28,3.0,4.0,46,0.00,,,0.00,Wunderground v.1.15,2013-03-09 00:08:00,
2013-03-08 16:14:00,56.6,34.9,30.00,NW,317,3.0,3.0,44,0.00,,,0.00,Wunderground v.1.15,2013-03-09 00:14:00,
2013-03-08 16:20:00,57.0,35.3,30.01,NW,321,3.0,4.0,44,0.00,,,0.00,Wunderground v.1.15,2013-03-09 00:20:00,
2013-03-08 16:26:00,56.6,35.5,30.00,NNW,337,3.0,6.0,45,0.00,,,0.00,Wunderground v.1.15,2013-03-09 00:26:00,
2013-03-08 16:32:00,56.5,36.0,30.01,WNW,292,3.0,4.0,46,0.00,,,0.00,Wunderground v.1.15,2013-03-09 00:32:00,
2013-03-08 16:38:00,56.5,35.4,30.01,NNW,338,3.0,5.0,45,0.00,,,0.00,Wunderground v.1.15,2013-03-09 00:38:00,
2013-03-08 16:44:00,56.3,35.8,30.01,NW,312,3.0,3.0,46,0.00,,,0.00,Wunderground v.1.15,2013-03-09 00:44:00,
2013-03-08 16:50:00,56.1,35.6,30.01,North,350,2.0,2.0,46,0.00,,,0.00,Wunderground v.1.15,2013-03-09 00:50:00,
2013-03-08 16:56:00,56.0,36.6,30.01,NNW,340,2.0,5.0,48,0.00,,,0.00,Wunderground v.1.15,2013-03-09 00:56:00,
2013-03-08 17:02:00,55.7,36.8,30.01,NW,317,3.0,4.0,49,0.00,,,0.00,Wunderground v.1.15,2013-03-09 01:02:00,
2013-03-08 17:08:00,55.6,37.7,30.01,North,355,3.0,4.0,51,0.00,,,0.00,Wunderground v.1.15,2013-03-09 01:08:00,
2013-03-08 17:14:00,55.5,38.1,30.02,NNE,32,3.0,4.0,52,0.00,,,0.00,Wunderground v.1.15,2013-03-09 01:14:00,
2013-03-08 17:20:00,55.0,38.2,30.02,NW,309,3.0,3.0,53,0.00,,,0.00,Wunderground v.1.15,2013-03-09 01:20:00,
2013-03-08 17:26:00,54.6,38.3,30.02,NW,304,2.0,3.0,54,0.00,,,0.00,Wunderground v.1.15,2013-03-09 01:26:00,
2013-03-08 17:32:00,54.0,38.6,30.03,NNE,32,2.0,2.0,56,0.00,,,0.00,Wunderground v.1.15,2013-03-09 01:32:00,
2013-03-08 17:38:00,53.6,38.7,30.03,NNE,17,2.0,2.0,57,0.00,,,0.00,Wunderground v.1.15,2013-03-09 01:38:00,
2013-03-08 17:44:00,53.2,38.4,30.03,NNE,25,2.0,2.0,57,0.00,,,0.00,Wunderground v.1.15,2013-03-09 01:44:00,
2013-03-08 17:50:00,52.8,37.5,30.03,NW,321,1.0,2.0,56,0.00,,,0.00,Wunderground v.1.15,2013-03-09 01:50:00,
2013-03-08 17:56:00,52.4,36.7,30.04,NW,321,1.0,2.0,55,0.00,,,0.00,Wunderground v.1.15,2013-03-09 01:56:00,
2013-03-08 18:02:00,51.9,37.1,30.04,NW,319,1.0,1.0,57,0.00,,,0.00,Wunderground v.1.15,2013-03-09 02:02:00,
2013-03-08 18:08:00,51.5,37.2,30.04,NW,318,0.0,1.0,58,0.00,,,0.00,Wunderground v.1.15,2013-03-09 02:08:00,
2013-03-08 18:14:00,51.0,37.2,30.04,NW,317,1.0,2.0,59,0.00,,,0.00,Wunderground v.1.15,2013-03-09 02:14:00,
2013-03-08 18:20:00,50.4,37.9,30.05,NW,317,1.0,1.0,62,0.00,,,0.00,Wunderground v.1.15,2013-03-09 02:20:00,
2013-03-08 18:26:00,50.0,37.9,30.05,NW,306,2.0,3.0,63,0.00,,,0.00,Wunderground v.1.15,2013-03-09 02:26:00,
2013-03-08 18:32:00,49.5,37.8,30.05,NW,307,2.0,3.0,64,0.00,,,0.00,Wunderground v.1.15,2013-03-09 02:32:00,
2013-03-08 18:38:00,49.2,37.9,30.06,NW,308,1.0,3.0,65,0.00,,,0.00,Wunderground v.1.15,2013-03-09 02:38:00,
2013-03-08 18:44:00,48.8,37.9,30.06,NW,305,2.0,3.0,66,0.00,,,0.00,Wunderground v.1.15,2013-03-09 02:44:00,
2013-03-08 18:50:00,48.6,38.5,30.06,NW,307,2.0,2.0,68,0.00,,,0.00,Wunderground v.1.15,2013-03-09 02:50:00,
2013-03-08 18:56:00,48.3,38.6,30.07,NW,306,3.0,3.0,69,0.00,,,0.00,Wunderground v.1.15,2013-03-09 02:56:00,
2013-03-08 19:02:00,48.0,38.7,30.07,NW,309,2.0,3.0,70,0.00,,,0.00,Wunderground v.1.15,2013-03-09 03:02:00,
2013-03-08 19:08:00,47.8,38.8,30.07,WNW,296,2.0,3.0,71,0.00,,,0.00,Wunderground v.1.15,2013-03-09 03:08:00,
2013-03-08 19:14:00,47.6,39.0,30.07,WNW,301,2.0,2.0,72,0.00,,,0.00,Wunderground v.1.15,2013-03-09 03:14:00,
2013-03-08 19:20:00,47.5,39.3,30.07,NW,312,3.0,3.0,73,0.00,,,0.00,Wunderground v.1.15,2013-03-09 03:20:00,
2013-03-08 19:26:00,47.3,39.1,30.07,NW,307,3.0,4.0,73,0.00,,,0.00,Wunderground v.1.15,2013-03-09 03:26:00,
2013-03-08 19:32:00,47.2,39.0,30.08,NW,306,3.0,3.0,73,0.00,,,0.00,Wunderground v.1.15,2013-03-09 03:32:00,
2013-03-08 19:38:00,46.8,38.9,30.08,NW,308,2.0,3.0,74,0.00,,,0.00,Wunderground v.1.15,2013-03-09 03:38:00,
2013-03-08 19:44:00,46.5,39.0,30.08,NW,309,2.0,3.0,75,0.00,,,0.00,Wunderground v.1.15,2013-03-09 03:44:00,
2013-03-08 19:50:00,46.4,39.2,30.08,NW,312,2.0,4.0,76,0.00,,,0.00,Wunderground v.1.15,2013-03-09 03:50:00,
2013-03-08 19:56:00,46.2,39.1,30.08,WNW,302,3.0,4.0,76,0.00,,,0.00,Wunderground v.1.15,2013-03-09 03:56:00,
2013-03-08 20:02:00,46.0,39.2,30.09,WNW,296,2.0,4.0,77,0.00,,,0.00,Wunderground v.1.15,2013-03-09 04:02:00,
2013-03-08 20:08:00,46.1,39.6,30.09,NW,305,3.0,4.0,78,0.00,,,0.00,Wunderground v.1.15,2013-03-09 04:08:00,
2013-03-08 20:14:00,46.0,39.5,30.09,NW,306,3.0,3.0,78,0.00,,,0.00,Wunderground v.1.15,2013-03-09 04:14:00,
2013-03-08 20:20:00,46.0,39.5,30.10,NW,315,3.0,4.0,78,0.00,,,0.00,Wunderground v.1.15,2013-03-09 04:20:00,
2013-03-08 20:26:00,45.9,39.4,30.10,NW,309,3.0,4.0,78,0.00,,,0.00,Wunderground v.1.15,2013-03-09 04:26:00,
2013-03-08 20:32:00,45.8,39.3,30.10,NW,321,3.0,3.0,78,0.00,,,0.00,Wunderground v.1.15,2013-03-09 04:32:00,
2013-03-08 20:38:00,45.6,39.5,30.10,NNW,328,2.0,5.0,79,0.00,,,0.00,Wunderground v.1.15,2013-03-09 04:38:00,
2013-03-08 20:44:00,45.4,39.3,30.11,NW,304,2.0,8.0,79,0.00,,,0.00,Wunderground v.1.15,2013-03-09 04:44:00,
2013-03-08 20:50:00,45.4,39.3,30.11,NW,307,3.0,6.0,79,0.00,,,0.00,Wunderground v.1.15,2013-03-09 04:50:00,
2013-03-08 20:56:00,45.2,39.1,30.11,NNW,331,2.0,6.0,79,0.00,,,0.00,Wunderground v.1.15,2013-03-09 04:56:00,
2013-03-08 21:00:00,45.1,39.3,30.11,NW,326,2.0,2.0,80,0.00,,,0.00,Wunderground v.1.15,2013-03-09 05:00:00,
2013-03-08 21:02:00,45.1,39.3,30.11,NW,313,2.0,4.0,80,0.00,,,0.00,Wunderground v.1.15,2013-03-09 05:02:00,
2013-03-08 21:04:00,45.0,39.2,30.11,NW,323,3.0,6.0,80,0.00,,,0.00,Wunderground v.1.15,2013-03-09 05:04:00,
2013-03-08 21:06:00,45.0,39.2,30.12,NW,305,3.0,6.0,80,0.00,,,0.00,Wunderground v.1.15,2013-03-09 05:06:00,
2013-03-08 21:12:00,44.9,39.1,30.12,NW,315,2.0,2.0,80,0.00,,,0.00,Wunderground v.1.15,2013-03-09 05:12:00,
2013-03-08 21:18:00,44.8,39.3,30.12,WNW,300,2.0,2.0,81,0.00,,,0.00,Wunderground v.1.15,2013-03-09 05:18:00,
2013-03-08 21:24:00,44.5,39.0,30.12,West,276,2.0,3.0,81,0.00,,,0.00,Wunderground v.1.15,2013-03-09 05:24:00,
2013-03-08 21:30:00,44.2,38.7,30.12,NW,324,2.0,3.0,81,0.00,,,0.00,Wunderground v.1.15,2013-03-09 05:30:00,
2013-03-08 21:36:00,44.1,39.0,30.13,NW,314,2.0,3.0,82,0.00,,,0.00,Wunderground v.1.15,2013-03-09 05:36:00,
2013-03-08 21:42:00,44.0,38.9,30.13,NW,311,2.0,2.0,82,0.00,,,0.00,Wunderground v.1.15,2013-03-09 05:42:00,
2013-03-08 21:48:00,44.0,38.9,30.13,WNW,296,2.0,2.0,82,0.00,,,0.00,Wunderground v.1.15,2013-03-09 05:48:00,
2013-03-08 21:54:00,43.9,38.8,30.13,NW,320,2.0,2.0,82,0.00,,,0.00,Wunderground v.1.15,2013-03-09 05:54:00,
2013-03-08 22:00:00,43.6,38.5,30.14,NW,323,1.0,1.0,82,0.00,,,0.00,Wunderground v.1.15,2013-03-09 06:00:00,
2013-03-08 22:06:00,43.4,38.3,30.14,NW,323,2.0,2.0,82,0.00,,,0.00,Wunderground v.1.15,2013-03-09 06:06:00,
2013-03-08 22:12:00,43.3,38.2,30.14,NW,318,2.0,2.0,82,0.00,,,0.00,Wunderground v.1.15,2013-03-09 06:12:00,
2013-03-08 22:18:00,43.2,38.4,30.14,NW,320,1.0,3.0,83,0.00,,,0.00,Wunderground v.1.15,2013-03-09 06:18:00,
2013-03-08 22:24:00,43.1,38.3,30.14,NW,314,1.0,2.0,83,0.00,,,0.00,Wunderground v.1.15,2013-03-09 06:24:00,
2013-03-08 22:30:00,43.0,38.2,30.14,NW,313,2.0,2.0,83,0.00,,,0.00,Wunderground v.1.15,2013-03-09 06:30:00,
2013-03-08 22:36:00,42.9,38.1,30.14,NW,313,2.0,2.0,83,0.00,,,0.00,Wunderground v.1.15,2013-03-09 06:36:00,
2013-03-08 22:42:00,42.9,38.1,30.15,NW,314,1.0,1.0,83,0.00,,,0.00,Wunderground v.1.15,2013-03-09 06:42:00,
2013-03-08 22:48:00,42.9,38.1,30.15,NW,317,0.0,1.0,83,0.00,,,0.00,Wunderground v.1.15,2013-03-09 06:48:00,
2013-03-08 22:54:00,42.7,37.9,30.15,NW,316,1.0,1.0,83,0.00,,,0.00,Wunderground v.1.15,2013-03-09 06:54:00,
2013-03-08 23:00:00,42.5,37.7,30.15,NW,319,1.0,1.0,83,0.00,,,0.00,Wunderground v.1.15,2013-03-09 07:00:00,
2013-03-08 23:06:00,42.4,37.6,30.15,NW,311,2.0,4.0,83,0.00,,,0.00,Wunderground v.1.15,2013-03-09 07:06:00,
2013-03-08 23:12:00,42.3,37.5,30.15,NW,309,2.0,3.0,83,0.00,,,0.00,Wunderground v.1.15,2013-03-09 07:12:00,
2013-03-08 23:18:00,42.2,37.4,30.15,NW,311,2.0,3.0,83,0.00,,,0.00,Wunderground v.1.15,2013-03-09 07:18:00,
2013-03-08 23:24:00,42.0,37.5,30.15,WNW,298,2.0,4.0,84,0.00,,,0.00,Wunderground v.1.15,2013-03-09 07:24:00,
2013-03-08 23:30:00,41.9,37.4,30.16,NW,313,2.0,2.0,84,0.00,,,0.00,Wunderground v.1.15,2013-03-09 07:30:00,
2013-03-08 23:36:00,41.8,37.3,30.16,NW,312,2.0,3.0,84,0.00,,,0.00,Wunderground v.1.15,2013-03-09 07:36:00,
2013-03-08 23:42:00,41.6,37.1,30.16,NW,320,2.0,2.0,84,0.00,,,0.00,Wunderground v.1.15,2013-03-09 07:42:00,
2013-03-08 23:48:00,41.5,37.0,30.16,NW,323,2.0,3.0,84,0.00,,,0.00,Wunderground v.1.15,2013-03-09 07:48:00,
2013-03-08 23:54:00,41.5,37.0,30.16,NW,318,1.0,2.0,84,0.00,,,0.00,Wunderground v.1.15,2013-03-09 07:54:00,